Location: Colle Pacifico
(43.5333°N, 13.3167°E)
Time: 18:27:56
(UTC+00:00)

Cosmos 2333 Rocket - Pass Details

Date: 07 June 2020
Orbit: 838 x 863 km, 70.8° (Epoch: 11 July)

Event Time Altitude Azimuth Distance (km) Brightness Sun altitude
Exits shadow 02:37:37 - 201° (SSW) 2,811 4.4 -7.8°
Reaches altitude 10° 02:38:34 10° 200° (SSW) 2,448 4.1 -7.7°
Maximum altitude 02:44:11 84° 114° (ESE) 853 2.3 -6.9°
Drops below altitude 10° 02:49:53 10° 26° (NNE) 2,477 5.9 -6.1°
Sets 02:52:21 0° 26° (NNE) 3,420 6.8 -5.8°
